Location: Newark
(45.6000°N, 12.8833°E)
Time: 11:57:36
(UTC+00:00)

Courier 1B - All Passes

Search period start: 17 November 2019 00:00
Search period end: 27 November 2019 00:00
Orbit: 963 x 1209 km, 28.3° (Epoch: 16 November)

Date Brightness Start Highest point End Pass type
(mag) Time Alt. Az. Time Alt. Az. Time Alt. Az.
17 Nov - 06:10:54 10° SSW 06:14:05 14° SSE 06:17:13 10° SE daylight
17 Nov - 08:03:01 10° SW 08:06:52 16° S 08:10:41 10° SE daylight
17 Nov - 09:57:56 10° SSW 09:59:36 11° SSW 10:01:16 10° S daylight
18 Nov - 05:18:07 10° S 05:20:39 12° SSE 05:23:09 10° SE visible
18 Nov - 07:09:29 10° SW 07:13:26 17° S 07:17:20 10° SE daylight
18 Nov - 09:03:24 10° SW 09:06:11 13° SSW 09:08:59 10° SSE daylight
19 Nov - 04:26:05 10° S 04:27:12 10° SSE 04:28:19 10° SSE visible
19 Nov - 06:16:01 10° SSW 06:19:59 16° S 06:23:51 10° SE daylight
19 Nov - 08:09:20 10° SW 08:12:47 15° S 08:16:11 10° SSE daylight
20 Nov - 05:22:42 10° SSW 05:26:32 16° S 05:30:16 10° SE visible
20 Nov - 07:15:29 10° SW 07:19:21 16° S 07:23:09 10° SSE daylight
21 Nov - 04:29:30 10° SSW 04:33:04 15° SSE 04:36:31 10° SE visible
21 Nov - 06:21:45 10° SW 06:25:54 17° S 06:29:57 10° SE daylight
21 Nov - 08:16:32 10° SW 08:18:39 12° SSW 08:20:44 10° S daylight
22 Nov - 03:36:34 10° S 03:39:34 13° SSE 03:42:31 10° SE visible
22 Nov - 05:28:07 10° SW 05:32:26 18° S 05:36:38 10° SE visible
22 Nov - 07:22:02 10° SW 07:25:14 14° SSW 07:28:22 10° SSE daylight
23 Nov - 02:44:10 10° S 02:46:05 11° SSE 02:47:58 10° SE visible
23 Nov - 04:34:33 10° SW 04:38:56 17° S 04:43:11 10° SE visible
23 Nov - 06:27:56 10° SW 06:31:47 16° S 06:35:34 10° SSE daylight
24 Nov - 03:41:08 10° SSW 03:45:26 17° S 03:49:35 10° SE visible
24 Nov - 05:34:00 10° SW 05:38:20 17° S 05:42:31 10° SSE visible
24 Nov - 07:30:13 10° SSW 07:31:02 10° SSW 07:31:51 10° SSW daylight
25 Nov - 02:47:53 10° SSW 02:51:54 15° SSE 02:55:49 10° SE visible
25 Nov - 04:40:11 10° SW 04:44:50 18° S 04:49:19 10° SE visible
25 Nov - 06:34:45 10° SW 06:37:38 13° SSW 06:40:26 10° S daylight
26 Nov - 01:54:53 10° SSW 01:58:22 14° SSE 02:01:47 10° SE visible
26 Nov - 03:46:30 10° SW 03:51:18 19° S 03:55:57 10° SE visible
26 Nov - 05:40:22 10° SW 05:44:11 15° SSW 05:47:54 10° SSE visible
